Franklin, NC

3:29 PM EST on February 24, 2018 (GMT -0500)
Franklin

Weather History for K1A5 - November, 2011

Change the Weather History Date:

Wednesday, November 16, 2011

  Actual Average (KTOC) Record (KTOC)
Temperature  
Mean Temperature 60 °F -  
Max Temperature 68 °F 62 °F 76 °F (2016)
Min Temperature 53 °F 40 °F 33 °F (2015)
Degree Days  
Heating Degree Days 4    
Growing Degree Days 10 (Base 50)    
Moisture  
Dew Point 57 °F    
Average Humidity 88    
Maximum Humidity 94    
Minimum Humidity 64    
Precipitation  
Precipitation 0.73 in - - ()
Sea Level Pressure  
Sea Level Pressure 29.86 in    
Wind  
Wind Speed 1 mph (East)    
Max Wind Speed 9 mph    
Max Gust Speed 17 mph    
Visibility 8 miles    
Events Rain    
Averages and records for this station are not official NWS values.
T = Trace of Precipitation, MM = Missing Value Source: NWS Daily Summary

Daily Weather History Graph

Daily Weather History Graph

Search for Another Location

Airport or City:

Trip Planner

Search our weather history database for the weather conditions in past years. The results will help you decide how hot, cold, wet, or windy it might be!

Date:

Astronomy

Nov. 16, 2011 Rise Set
Actual Time 7:09 AM EST 5:27 PM EST
Civil Twilight 6:42 AM EST 5:54 PM EST
Nautical Twilight 6:11 AM EST 6:24 PM EST
Astronomical Twilight 5:41 AM EST 6:55 PM EST
Moon 10:37 PM EST (11/16) 11:45 AM EST (11/16)
Length of Visible Light 11h 11m
Length of Day
10h 17m
Waning Gibbous, 70% of the Moon is Illuminated
Nov 16
Waning Gibbous
Nov 18
Last Quarter
Nov 25
New
Dec 2
First Quarter
Dec 10
Full

Hourly Weather History & Observations

Time (EST) Temp. Dew Point Humidity Pressure Visibility Wind Dir Wind Speed Gust Speed Precip Events Conditions
12:15 AM 59.0 °F 55.4 °F 88% 29.95 in 1.5 mi Calm Calm - 0.06 in Rain Heavy Rain
12:35 AM 59.0 °F 55.4 °F 88% 29.95 in 2.0 mi Calm Calm - 0.07 in   Drizzle
12:55 AM 59.0 °F 55.4 °F 88% 29.94 in 2.0 mi Calm Calm - 0.09 in   Heavy Drizzle
1:15 AM 59.0 °F 55.4 °F 88% 29.94 in 4.0 mi Calm Calm - 0.01 in   Light Drizzle
1:35 AM 59.0 °F 57.2 °F 94% 29.93 in 10.0 mi East 4.6 mph - 0.01 in   Overcast
1:55 AM 60.8 °F 57.2 °F 88% 29.92 in 10.0 mi Calm Calm - 0.01 in   Overcast
2:15 AM 60.8 °F 57.2 °F 88% 29.92 in 5.0 mi Calm Calm - N/A Rain Light Rain
2:35 AM 59.0 °F 57.2 °F 94% 29.92 in 7.0 mi East 3.5 mph - N/A   Light Drizzle
2:55 AM 59.0 °F 57.2 °F 94% 29.92 in 10.0 mi Calm Calm - N/A   Overcast
3:15 AM 59.0 °F 57.2 °F 94% 29.91 in 10.0 mi Calm Calm - 0.01 in   Light Drizzle
3:35 AM 59.0 °F 57.2 °F 94% 29.91 in 10.0 mi East 4.6 mph - 0.01 in   Overcast
3:55 AM 60.8 °F 59.0 °F 94% 29.89 in 10.0 mi Calm Calm - 0.01 in   Overcast
4:15 AM 60.8 °F 59.0 °F 94% 29.89 in 10.0 mi Calm Calm - N/A   Overcast
4:35 AM 59.0 °F 57.2 °F 94% 29.87 in 7.0 mi Calm Calm - N/A   Overcast
4:55 AM 59.0 °F 55.4 °F 88% 29.89 in 7.0 mi Calm Calm - N/A   Mostly Cloudy
5:15 AM 59.0 °F 55.4 °F 88% 29.89 in 5.0 mi Calm Calm - N/A Rain Light Rain
5:35 AM 59.0 °F 57.2 °F 94% 29.89 in 7.0 mi ENE 3.5 mph - 0.02 in Rain Rain
5:55 AM 59.0 °F 57.2 °F 94% 29.90 in 4.0 mi Calm Calm - 0.10 in Rain Heavy Rain
6:15 AM 60.8 °F 57.2 °F 88% 29.88 in 5.0 mi East 4.6 mph - 0.07 in Rain Rain
6:35 AM 60.8 °F 57.2 °F 88% 29.87 in 5.0 mi Calm Calm - 0.08 in Rain Rain
6:55 AM 59.0 °F 57.2 °F 94% 29.89 in 4.0 mi Calm Calm - 0.11 in Rain Rain
7:15 AM 60.8 °F 59.0 °F 94% 29.90 in 1.8 mi East 3.5 mph - 0.10 in Rain Heavy Rain
7:35 AM 60.8 °F 59.0 °F 94% 29.90 in 4.0 mi Calm Calm - 0.24 in Rain Light Rain
7:55 AM 60.8 °F 57.2 °F 88% 29.90 in 10.0 mi Calm Calm - 0.24 in   Overcast
8:15 AM 60.8 °F 57.2 °F 88% 29.90 in 10.0 mi Calm Calm - 0.01 in   Mostly Cloudy
8:35 AM 60.8 °F 59.0 °F 94% 29.91 in 7.0 mi Calm Calm - 0.01 in Rain Light Rain
8:55 AM 60.8 °F 59.0 °F 94% 29.90 in 10.0 mi Calm Calm - 0.02 in Rain Light Rain
9:15 AM 60.8 °F 59.0 °F 94% 29.93 in 5.0 mi Calm Calm - 0.01 in Rain Heavy Rain
9:35 AM 60.8 °F 59.0 °F 94% 29.91 in 5.0 mi Calm Calm - 0.05 in Rain Light Rain
9:55 AM 60.8 °F 57.2 °F 88% 29.89 in 5.0 mi Calm Calm - 0.07 in Rain Rain
10:15 AM 60.8 °F 57.2 °F 88% 29.89 in 10.0 mi Calm Calm - 0.02 in Rain Light Rain
10:35 AM 60.8 °F 59.0 °F 94% 29.89 in 10.0 mi ENE 3.5 mph - 0.02 in   Overcast
11:15 AM 60.8 °F 59.0 °F 94% 29.87 in 10.0 mi ENE 3.5 mph - N/A   Overcast
11:35 AM 62.6 °F 59.0 °F 88% 29.86 in 10.0 mi Calm Calm - N/A   Overcast
11:55 AM 62.6 °F 59.0 °F 88% 29.85 in 10.0 mi Calm Calm - 0.01 in   Overcast
12:15 PM 62.6 °F 59.0 °F 88% 29.84 in 10.0 mi Calm Calm - N/A   Overcast
12:35 PM 64.4 °F 59.0 °F 83% 29.82 in 10.0 mi East 6.9 mph - N/A   Overcast
12:55 PM 64.4 °F 59.0 °F 83% 29.81 in 10.0 mi East 4.6 mph - N/A   Overcast
1:15 PM 64.4 °F 59.0 °F 83% 29.80 in 7.0 mi East 5.8 mph - N/A Rain Light Rain
1:35 PM 64.4 °F 59.0 °F 83% 29.78 in 7.0 mi East 5.8 mph - N/A Rain Light Rain
1:55 PM 64.4 °F 59.0 °F 83% 29.77 in 10.0 mi East 9.2 mph - N/A   Overcast
2:15 PM 64.4 °F 59.0 °F 83% 29.76 in 7.0 mi Calm Calm - N/A Rain Rain
2:35 PM 64.4 °F 59.0 °F 83% 29.77 in 10.0 mi East 4.6 mph - 0.01 in   Overcast
2:55 PM 66.2 °F 59.0 °F 78% 29.77 in 10.0 mi East 4.6 mph - 0.01 in   Overcast
3:15 PM 66.2 °F 59.0 °F 78% 29.76 in 10.0 mi East 6.9 mph - N/A   Overcast
3:35 PM 68.0 °F 55.4 °F 64% 29.78 in 7.0 mi East 4.6 mph 17.3 mph N/A Rain Light Rain
3:55 PM 66.2 °F 55.4 °F 68% 29.79 in 10.0 mi East 5.8 mph - N/A Rain Rain
4:15 PM 62.6 °F 55.4 °F 77% 29.80 in 10.0 mi Calm Calm - 0.01 in Rain Rain
4:35 PM 60.8 °F 57.2 °F 88% 29.80 in 7.0 mi Calm Calm - 0.02 in Rain Rain
4:55 PM 60.8 °F 57.2 °F 88% 29.80 in 7.0 mi Calm Calm - 0.03 in Rain Light Rain
5:15 PM 60.8 °F 57.2 °F 88% 29.80 in 10.0 mi Calm Calm - N/A   Light Drizzle
5:35 PM 60.8 °F 57.2 °F 88% 29.81 in 7.0 mi Calm Calm - 0.01 in Rain Rain
5:55 PM 60.8 °F 57.2 °F 88% 29.82 in 5.0 mi Calm Calm - 0.01 in   Light Drizzle
6:15 PM 59.0 °F 55.4 °F 88% 29.82 in 5.0 mi Calm Calm - N/A   Overcast
6:35 PM 59.0 °F 55.4 °F 88% 29.83 in 10.0 mi Calm Calm - N/A   Mostly Cloudy
6:55 PM 59.0 °F 51.8 °F 77% 29.83 in 10.0 mi East 6.9 mph - N/A   Overcast
7:35 PM 57.2 °F 51.8 °F 82% 29.84 in 10.0 mi Calm Calm - N/A   Mostly Cloudy
7:55 PM 55.4 °F 51.8 °F 88% 29.84 in 10.0 mi Calm Calm - N/A   Scattered Clouds
8:35 PM 53.6 °F 50.0 °F 88% 29.86 in 10.0 mi East 5.8 mph - N/A   Scattered Clouds
8:55 PM 53.6 °F 50.0 °F 88% 29.87 in 10.0 mi East 6.9 mph - N/A   Scattered Clouds
9:15 PM 53.6 °F 48.2 °F 82% 29.87 in 10.0 mi East 6.9 mph - N/A   Mostly Cloudy
9:55 PM 53.6 °F 46.4 °F 77% 29.89 in 10.0 mi East 4.6 mph - N/A   Mostly Cloudy
10:15 PM 53.6 °F 46.4 °F 77% 29.89 in 10.0 mi East 5.8 mph - N/A   Scattered Clouds
10:35 PM 53.6 °F 46.4 °F 77% 29.88 in 10.0 mi East 6.9 mph - N/A   Scattered Clouds
10:55 PM 53.6 °F 46.4 °F 77% 29.88 in 10.0 mi East 3.5 mph - N/A   Scattered Clouds
11:15 PM 51.8 °F 46.4 °F 82% 29.89 in 10.0 mi Calm Calm - N/A   Overcast
11:35 PM 51.8 °F 46.4 °F 82% 29.89 in 10.0 mi East 4.6 mph - N/A   Overcast
11:55 PM 51.8 °F 46.4 °F 82% 29.89 in 10.0 mi East 4.6 mph - N/A   Overcast